This is the latest recevied weather packets stored in our database for station/object SV9TNF-56. If no packets are shown the sender has not sent any weather packets the latest 10 day(s).
| Time | Temp. | Humidity | Pressure | Rain* | Wind** | Luminosity | Snow |
|---|---|---|---|---|---|---|---|
| 1788149558 | 23.89° C | 71% | 1018.3 hPa | 0 mm | 3.13 m/s, 178° | - | - |
| 1788149258 | 23.89° C | 72% | 1018.3 hPa | 0 mm | 8.05 m/s, 111° | - | - |
| 1788148958 | 23.33° C | 72% | 1018.3 hPa | 0 mm | 3.13 m/s, 48° | - | - |
| 1788148658 | 23.33° C | 74% | 1018.3 hPa | 0 mm | 3.13 m/s, 144° | - | - |
| 1788148358 | 23.33° C | 75% | 1018.3 hPa | 0 mm | 3.13 m/s, 156° | - | - |
| 1788148058 | 23.33° C | 78% | 1018.3 hPa | 0 mm | 4.92 m/s, 149° | - | - |
| 1788147757 | 23.33° C | 80% | 1018.3 hPa | 0 mm | 0 m/s | - | - |
| 1788147457 | 23.33° C | 80% | 1018.3 hPa | 0 mm | 4.47 m/s, 228° | - | - |
| 1788147157 | 23.33° C | 80% | 1018.3 hPa | 0 mm | 4.92 m/s, 160° | - | - |
| 1788146857 | 23.89° C | 80% | 1018.3 hPa | 0 mm | 4.47 m/s, 183° | - | - |
| 1788146557 | 23.89° C | 79% | 1018.3 hPa | 0 mm | 2.24 m/s, 177° | - | - |
| 1788146257 | 23.89° C | 78% | 1018.3 hPa | 0 mm | 16.54 m/s, 252° | - | - |
| 1788145957 | 23.89° C | 76% | 1018.3 hPa | 0 mm | 8.94 m/s, 306° | - | - |
| 1788145657 | 23.33° C | 74% | 1018.3 hPa | 0 mm | 25.48 m/s, 258° | - | - |
| 1788145357 | 23.33° C | 75% | 1018.3 hPa | 0 mm | 7.15 m/s, 198° | - | - |
| 1788145056 | 23.33° C | 78% | 1018.3 hPa | 0 mm | 13.86 m/s, 238° | - | - |
| 1788144756 | 23.33° C | 77% | 1018.3 hPa | 0 mm | 14.31 m/s, 282° | - | - |
| 1788144456 | 23.89° C | 78% | 1018.3 hPa | 0 mm | 12.07 m/s, 252° | - | - |
| 1788144156 | 23.89° C | 77% | 1018.6 hPa | 0 mm | 12.96 m/s, 231° | - | - |
| 1788143856 | 23.89° C | 77% | 1018.6 hPa | 0 mm | 2.68 m/s, 222° | - | - |
| 1788143556 | 23.89° C | 77% | 1018.3 hPa | 0 mm | 4.92 m/s, 155° | - | - |
| 1788143256 | 23.89° C | 76% | 1018 hPa | 0 mm | 5.81 m/s, 126° | - | - |
| 1788142956 | 23.89° C | 74% | 1018.3 hPa | 0 mm | 6.71 m/s, 284° | - | - |
| 1788142656 | 23.89° C | 74% | 1018.3 hPa | 0 mm | 8.49 m/s, 206° | - | - |
| 1788142356 | 23.89° C | 74% | 1018 hPa | 0 mm | 6.26 m/s, 321° | - | - |
* Rain latest hour (hover to see other rain measurements)
** Current wind speed in m/s (hover to see current wind gust speed)